Regional Weather Roundup
Issued by NWS

Home | Current Version | Previous Version | Graphics & Text | Print | Product List | Glossary Off
Versions: 1 2 3 4 5 6 7 8 9 10 11 12 13 14 15 16 17 18 19 20 21 22 23 24 25 26 27

000
ASUS45 KBOU 272307
RWRCO

WEATHER ROUNDUP FOR COLORADO
NATIONAL WEATHER SERVICE DENVER/BOULDER CO
500 PM MDT WED JUL 27 2016

NOTE: "FAIR" INDICATES FEW OR NO CLOUDS BELOW 12000 FEET WITH NO
SIGNIFICANT WEATHER AND/OR OBSTRUCTIONS TO VISIBILITY.

COZ001>005-013-030-031-280000-
...NORTHWEST COLORADO...

CITY           SKY/WX    TMP DP  RH WIND       PRES   REMARKS
CRAIG          FAIR      94  17   6 W8        30.19F
HAYDEN         FAIR      90  27  10 W9G17     30.23F
MEEKER         FAIR      93  26   9 N7        30.21F
MOUNT WERNER   NOT AVBL
STEAMBOAT SPGS FAIR      88  27  11 W16G25    30.25F
WALDEN         FAIR      81  19  10 NW8G22    30.37F
$$

COZ006>008-011-280000-
...WEST CENTRAL VALLEYS...

CITY           SKY/WX    TMP DP  RH WIND       PRES   REMARKS
GRAND JUNCTION FAIR     100  37  11 W12       30.06F
MONTROSE       FAIR      95  30  10 NW10G17   30.17F
EAGLE          MOSUNNY   91  30  11 W9        30.23F
RIFLE          FAIR      96  32  10 S9G22     30.11F
DELTA          NOT AVBL
NUCLA          NOT AVBL
$$

COZ017>023-064>068-280000-
...SOUTHWEST COLORADO...

CITY           SKY/WX    TMP DP  RH WIND       PRES   REMARKS
DURANGO        FAIR      91  31  11 VRB5      30.19F
CORTEZ         FAIR      96  34  11 N12G20    30.15F
PAGOSA SPRINGS FAIR      89  13   6 N9        30.29F
TELLURIDE      FAIR      80  25  13 CALM      30.49S
WOLF CREEK PAS FAIR      63  27  25 NE23G29   30.72S
$$

COZ009-010-012-014-032>034-037-058>063-280000-
...CENTRAL COLORADO...

CITY           SKY/WX    TMP DP  RH WIND       PRES   REMARKS
ASPEN          FAIR      86  27  11 N10       30.34F
BUENA VISTA    FAIR      86  17   8 NW13G20   30.33R
COPPER MTN     FAIR      64  21  19 W10       30.74S
BERTHOUD PASS  FAIR      59  43  55 NW21G31   30.76R
COTTONWOOD PAS FAIR      77   7   6 CALM      30.52R
GUNNISON       FAIR      84  27  12 N13       30.35F
KREMMLING      FAIR      90  14   6 NW7G18    30.32S
LEADVILLE      PTSUNNY   73  21  14 W15       30.53S
MONARCH PASS   FAIR      70  10  10 MISG      30.81F
SALIDA         FAIR      92  19   7 W7        30.34F
SUNLIGHT       NOT AVBL
WILKERSON PASS PTSUNNY   70  28  21 E5        30.68S
$$

COZ069>075-280000-
...SAN LUIS VALLEY/SANGRE DE CRISTO MOUNTAINS...

CITY           SKY/WX    TMP DP  RH WIND       PRES   REMARKS
ALAMOSA        FAIR      87  30  13 VRB3      30.29S
LA VETA PASS   FAIR      75  32  20 NE14G21   30.54F
SAGUACHE       FAIR      88  32  13 CALM      30.31F
$$

COZ035-036-038>040-280000-
...NORTHERN COLORADO FRONT RANGE...

CITY           SKY/WX    TMP DP  RH WIND       PRES   REMARKS
DENVER INTL AP FAIR      92  45  19 SE6       30.12F
DMNS CITY PARK   N/A     94  44  18 SW3       30.11F
AURORA         MOSUNNY   91  41  17 N1        30.14F
FRONT RANGE AP MOSUNNY   93  45  18 E6        30.14F
ERIE MUNI ARPT FAIR      91  42  18 CALM      30.10F
BOULDER MUN AP FAIR      90  50  25 NE8       30.11F
CENTENNIAL     FAIR      90  36  14 NE5       30.15F
BROOMFIELD     MOSUNNY   90  46  22 CALM      30.15F
LONGMONT       NOT AVBL
$$

COZ041-046-047-076>085-087-088-280000-
...PIKES PEAK/PALMER DIVIDE AND SOUTHERN FOOTHILLS...

CITY           SKY/WX    TMP DP  RH WIND       PRES   REMARKS
COLO. SPRINGS  FAIR      90  33  13 VRB6      30.22R
A. F. ACADEMY  FAIR      87  38  17 SE14      30.22S
SCHRIEVER AFB  NOT AVBL
ELLICOTT       MIX PCPN   1  32 100 SE8G16    30.19F WCI -13
FALCON         NOT AVBL
FORT CARSON    FAIR      91  35  14 VRB1      30.17F
LIMON          LGT RAIN  88  51  28 E29G37    30.13F
MONUMENT HILL  FAIR      82  36  18 CALM      30.29F
TRINIDAD       NOT AVBL
$$

COZ042>045-048>051-090-091-280000-
...NORTHEAST COLORADO...

CITY           SKY/WX    TMP DP  RH WIND       PRES   REMARKS
GREELEY ARPT   FAIR      91  54  27 SE9       30.09F
AKRON          FAIR      85  62  46 SE9G20    30.11S
BURLINGTON     FAIR      88  55  32 SE10      30.10S
WRAY           FAIR      91  54  27 S8        30.05F
STERLING       NOT AVBL
HOLYOKE        NOT AVBL
FORT MORGAN    NOT AVBL
$$

COZ086-089-092>099-280000-
...SOUTHEAST COLORADO...

CITY           SKY/WX    TMP DP  RH WIND       PRES   REMARKS
PUEBLO         FAIR      95  48  20 SE14      30.07S
LA JUNTA       FAIR      94  54  25 E10       30.03F
LAMAR          FAIR      95  60  31 E12       30.01S
SPRINGFIELD      N/A     76  57  51 SE8       30.08R
$$




USA.gov is the U.S. government's official web portal to all federal, state and local government web resources and services.